Regional Weather Roundup
Issued by NWS Cleveland, OH

Home | Current Version | Previous Version | Text Only | Print | Product List | Glossary On
Versions: 1 2 3 4 5 6 7 8 9 10 11 12 13 14 15 16 17 18 19 20 21 22 23 24 25 26 27 28 29 30 31 32 33 34 35 36 37 38 39 40 41 42 43 44 45 46 47 48 49 50
000
ASUS41 KCLE 312302
RWRCLE
OHIO REGIONAL WEATHER ROUNDUP
NATIONAL WEATHER SERVICE CLEVELAND, OH
700 PM EDT FRI OCT 31 2014

NOTE: "FAIR" INDICATES FEW OR NO CLOUDS BELOW 12,000 FEET WITH NO
SIGNIFICANT WEATHER AND/OR OBSTRUCTIONS TO VISIBILITY.

OHZ001>008-015>018-024>027-034-035-043-044-010000-
   NORTHWEST OHIO

CITY           SKY/WX    TMP DP  RH WIND       PRES   REMARKS
DEFIANCE       CLOUDY    38  32  79 N17G31    30.02R
FINDLAY        LGT RAIN  40  36  86 N25G31    29.93R
TOLEDO EXPRESS LGT RAIN  37  34  89 N25G36    29.98R
TOLEDO EXEC    FLURRIES  38  34  85 N22G32    29.98R
LIMA           LGT RAIN  40  40 100 N15G26    29.94R
$$

OHZ009>014-019>023-028>033-038-089-010000-
   NORTHEAST OHIO

CITY           SKY/WX    TMP DP  RH WIND       PRES   REMARKS
CLE-HOPKINS    LGT RAIN  44  39  82 CALM      29.91R
CLE-LAKEFRONT  LGT RAIN N/A N/A N/A CALM      29.89R
CUY CO. ARPT   DRIZZLE   46  45  93 N5        29.89R FOG
LORAIN-ELYRIA  CLOUDY    43  39  86 CALM      29.89R
ASHTABULA      CLOUDY    45  39  79 CALM      29.89R
AKRON-CANTON   LGT RAIN  45  40  82 CALM      29.87R
WOOSTER        LGT RAIN  44  40  85 CALM      29.88R FOG
MANSFIELD      LGT RAIN  41  40  96 NW8       29.87R FOG
YOUNGSTOWN     LGT RAIN  43  41  93 E5        29.87R
$$

OHZ042-051>053-060>062-070>072-077>081-010000-
  SOUTHWEST OHIO

CITY           SKY/WX    TMP DP  RH WIND       PRES   REMARKS
CINC-COVINGTON CLOUDY    40  34  79 NW13      29.96R
CINC-LUNKEN    CLOUDY    41  34  76 NW8       29.98R
HAMILTON       CLOUDY    40  36  86 NW12      29.97R
DAYTON         LGT RAIN  41  39  93 NW7       29.94R
WRIGHT-PAT AFB DRIZZLE   41  37  87 W6        29.93R
DAYTON GENERAL LGT RAIN  40  37  89 NW9       29.93R
WILMINGTON     LGT RAIN  39  36  89 NW10      29.92R
$$

OHZ036-037-039>041-045>050-054>059-063>069-073>076-082>088-010000-
  CENTRAL AND SOUTHEAST OHIO

CITY           SKY/WX    TMP DP  RH WIND       PRES   REMARKS
COLUMBUS       LGT RAIN  41  40  96 NW9       29.89R
OSU AIRPORT    LGT RAIN  40  37  89 NW9       29.89R
BOLTON FIELD   LGT RAIN  39  37  93 NW12G18   29.90R
RICKENBACK AFB DRIZZLE   41  38  91 NW12      29.88R
NEWARK         LGT RAIN  42  39  89 NW6       29.87R
MARION         LGT RAIN  41  38  89 N10       29.90R
LANCASTER      LGT RAIN  42  39  89 NW9       29.88R
ZANESVILLE     LGT RAIN  44  41  89 CALM      29.87R
NEW PHILLY     LGT RAIN  45  42  89 CALM      29.88R FOG
$$



USA.gov is the U.S. government's official web portal to all federal, state and local government web resources and services.